GW2593 Weather Reports


Display with metric or nautical units.
time (UTC)temp
F
wind
direction
speed
MPH
gust
MPH
rain 1hr
in
rain 24hr
in
rain mn
in
humidity
%
barometer
mb
20260506001713 70 0.0 0.0 0.00 0.00 0.00 76 1019.0
20260505234708 71 0.0 0.0 0.00 0.00 0.00 73 1018.7
20260505231703 72 0.0 0.0 0.00 0.00 0.00 73 1018.9
20260505224702 73 0.0 0.0 0.00 0.00 0.00 71 1019.2
20260505221701 73 0.0 0.0 0.00 0.00 0.00 70 1019.2
20260505214656 75 0.0 0.0 0.00 0.00 0.00 68 1018.8
20260505211656 76 0.0 0.0 0.00 0.00 0.00 67 1019.3
20260505204656 77 0.0 0.0 0.00 0.00 0.00 66 1019.1
20260505201654 77 0.0 0.0 0.00 0.00 0.00 64 1019.1
20260505194654 76 0.0 0.0 0.00 0.00 0.00 64 1019.6
20260505191650 77 0.0 0.0 0.00 0.00 0.00 64 1019.8
20260505184651 77 0.0 0.0 0.00 0.00 0.00 62 1020.2
20260505181649 77 0.0 0.0 0.00 0.00 0.00 65 1020.4
20260505174647 77 0.0 0.0 0.00 0.00 0.00 63 1020.4
20260505171643 78 0.0 0.0 0.00 0.00 0.00 62 1020.6
20260505164643 78 0.0 0.0 0.00 0.00 0.00 62 1020.7
20260505161640 78 0.0 0.0 0.00 0.00 0.00 63 1020.9
20260505151634 78 0.0 0.0 0.00 0.00 0.00 65 1021.1
20260505124618 75 0.0 0.0 0.00 0.00 0.00 73 1020.5
20260505121616 73 0.0 0.0 0.00 0.00 0.00 77 1020.3
20260505114612 69 0.0 0.0 0.00 0.00 0.00 85 1020.2
20260505111607 66 0.0 0.0 0.00 0.00 0.00 85 1019.9
20260505101601 66 0.0 0.0 0.00 0.00 0.00 85 1018.9
20260505094556 66 0.0 0.0 0.00 0.00 0.00 84 1018.7
20260505091555 66 0.0 0.0 0.00 0.00 0.00 84 1018.7
20260505084554 66 0.0 0.0 0.00 0.00 0.00 84 1018.4
20260505081552 66 0.0 0.0 0.00 0.00 0.00 83 1018.4
20260505074549 67 0.0 0.0 0.00 0.00 0.00 82 1018.3
20260505071547 67 0.0 0.0 0.00 0.00 0.00 80 1018.4
20260505064545 67 0.0 0.0 0.00 0.00 0.00 79 1018.5
20260505061540 67 0.0 0.0 0.00 0.00 0.00 78 1018.8
20260505054539 67 0.0 0.0 0.00 0.00 0.00 77 1019.0
20260505051533 67 0.0 0.0 0.00 0.00 0.00 76 1019.3
20260505041525 67 0.0 0.0 0.00 0.00 0.00 75 1019.5
20260505034524 67 0.0 0.0 0.00 0.00 0.00 74 1019.4
20260505031519 68 0.0 0.0 0.00 0.00 0.00 73 1019.5
20260505024517 68 0.0 0.0 0.00 0.00 0.00 71 1019.5
20260505021512 68 0.0 0.0 0.00 0.00 0.00 70 1019.6
20260505014508 68 0.0 0.0 0.00 0.00 0.00 69 1019.3
20260505011508 68 0.0 0.0 0.00 0.00 0.00 70 1019.1
20260505004505 68 0.0 0.0 0.00 0.00 0.00 69 1018.7